This is the latest recevied weather packets stored in our database for station/object LU4EGV-13. If no packets are shown the sender has not sent any weather packets the latest 10 day(s).
| Time | Temp. | Humidity | Pressure | Rain* | Wind** | Luminosity | Snow |
|---|---|---|---|---|---|---|---|
| 1777979226 | 15.56° C | 90% | 1011.1 hPa | 0 mm | - | - | - |
| 1777978619 | 15° C | 90% | 1010.9 hPa | 0 mm | - | - | - |
| 1777978014 | 15° C | 90% | 1010.9 hPa | 0 mm | - | - | - |
| 1777977407 | 15° C | 90% | 1010.9 hPa | 0 mm | - | - | - |
| 1777976800 | 15° C | 91% | 1010.7 hPa | 0 mm | - | - | - |
| 1777976195 | 14.44° C | 91% | 1010.6 hPa | 0 mm | - | - | - |
| 1777975588 | 14.44° C | 92% | 1010.7 hPa | 0 mm | - | - | - |
| 1777974982 | 14.44° C | 92% | 1010.3 hPa | 0 mm | - | - | - |
| 1777974389 | 14.44° C | 92% | 1010.1 hPa | 0 mm | - | - | - |
| 1777973769 | 14.44° C | 92% | 1009.9 hPa | 0 mm | - | - | - |
| 1777973163 | 13.89° C | 93% | 1010.1 hPa | 0 mm | - | - | - |
| 1777972557 | 13.89° C | 93% | 1010.1 hPa | 0 mm | - | - | - |
| 1777971955 | 13.33° C | 92% | 1010.1 hPa | 0 mm | - | - | - |
| 1777971345 | 13.33° C | 92% | 1010.1 hPa | 0 mm | - | - | - |
| 1777970740 | 12.78° C | 91% | 1010.4 hPa | 0 mm | - | - | - |
| 1777970134 | 12.22° C | 91% | 1010.1 hPa | 0 mm | - | - | - |
| 1777969526 | 11.67° C | 91% | 1010.1 hPa | 0 mm | - | - | - |
| 1777968921 | 11.67° C | 91% | 1010.1 hPa | 0 mm | - | - | - |
| 1777968314 | 11.67° C | 91% | 1009.8 hPa | 0 mm | - | - | - |
| 1777967708 | 12.22° C | 90% | 1009.7 hPa | 0 mm | - | - | - |
| 1777967103 | 12.22° C | 90% | 1009.6 hPa | 0 mm | - | - | - |
| 1777966496 | 12.22° C | 90% | 1009.7 hPa | 0 mm | - | - | - |
| 1777965889 | 12.22° C | 90% | 1009.6 hPa | 0 mm | - | - | - |
| 1777965283 | 12.22° C | 90% | 1009.6 hPa | 0 mm | - | - | - |
| 1777964677 | 12.22° C | 90% | 1009.6 hPa | 0 mm | - | - | - |
* Rain latest hour (hover to see other rain measurements)
** Current wind speed in m/s (hover to see current wind gust speed)